GW1296 Weather Reports


Display with metric or nautical units.
time (UTC)temp
F
wind
direction
speed
MPH
gust
MPH
rain 1hr
in
rain 24hr
in
rain mn
in
humidity
%
barometer
mb
20260503004540 51 0 0.0 1.0 0.00 0.00 0.00 94 1011.6
20260503003045 51 0 0.0 2.0 0.00 0.00 0.00 94 1011.7
20260503003038 51 128 0.0 1.0 0.00 0.01 0.00 94 1012.6
20260503001551 51 128 0.0 0.0 0.00 0.01 0.00 94 1012.6
20260503001536 51 0 0.0 0.0 0.00 0.00 0.00 93 1011.6
20260503000047 51 0 0.0 1.0 0.00 0.00 0.00 93 1011.6
20260503000036 51 128 0.0 0.0 0.00 0.01 0.00 94 1012.6
20260502234552 51 0 0.0 0.0 0.00 0.00 0.00 93 1011.7
20260502234540 51 128 0.0 0.0 0.00 0.01 0.00 94 1012.6
20260502233040 50 0 0.0 0.0 0.00 0.00 0.00 93 1011.7
20260502233033 51 128 0.0 0.0 0.00 0.01 0.00 93 1012.6
20260502231539 51 0 0.0 0.0 0.00 0.00 0.00 93 1011.8
20260502231533 51 128 0.0 0.0 0.00 0.01 0.00 93 1012.8
20260502230036 51 0 0.0 0.0 0.00 0.00 0.00 92 1011.7
20260502224534 51 0 0.0 0.0 0.00 0.00 0.00 92 1011.7
20260502223040 51 0 0.0 0.0 0.00 0.00 0.00 92 1011.7
20260502223030 51 128 0.0 0.0 0.00 0.01 0.01 93 1012.7
20260502221532 52 0 0.0 0.0 0.00 0.00 0.00 92 1011.8
20260502220039 52 0 0.0 1.0 0.00 0.00 0.00 92 1011.7
20260502220029 52 130 0.0 1.0 0.01 0.01 0.01 92 1012.8
20260502214545 52 0 0.0 2.0 0.00 0.00 0.00 92 1011.7
20260502214529 52 130 0.0 1.0 0.01 0.01 0.01 92 1012.8
20260502213042 52 0 0.0 0.0 0.00 0.00 0.00 91 1011.7
20260502213027 52 130 0.0 0.0 0.01 0.01 0.01 92 1012.8
20260502211535 52 0 0.0 0.0 0.00 0.00 0.00 91 1011.8
20260502211526 52 130 0.0 0.0 0.00 0.00 0.00 91 1012.9
20260502210034 52 0 0.0 3.0 0.00 0.00 0.00 90 1011.9
20260502210027 52 130 0.0 3.0 0.00 0.00 0.00 91 1012.9
20260502204538 52 120 0.0 4.0 0.00 0.00 0.00 90 1011.7
20260502204528 52 121 1.0 4.0 0.00 0.00 0.00 91 1012.8
20260502203055 52 117 2.0 8.0 0.00 0.00 0.00 89 1011.8
20260502203024 52 117 2.0 7.0 0.00 0.00 0.00 89 1012.9
20260502201543 53 129 1.0 7.0 0.00 0.00 0.00 87 1011.8
20260502201525 53 135 1.0 7.0 0.00 0.00 0.00 88 1012.9
20260502200045 54 118 1.0 4.0 0.00 0.00 0.00 86 1011.8
20260502200023 54 117 1.0 4.0 0.00 0.00 0.00 86 1013.0
20260502194536 54 134 0.0 6.0 0.00 0.00 0.00 84 1011.7
20260502194522 54 134 1.0 6.0 0.00 0.00 0.00 85 1012.9
20260502193040 55 0 0.0 3.0 0.00 0.00 0.00 84 1011.7
20260502193023 55 119 0.0 3.0 0.00 0.00 0.00 84 1012.8
20260502191544 55 0 1.0 4.0 0.00 0.00 0.00 83 1011.7
20260502191522 55 131 1.0 4.0 0.00 0.00 0.00 84 1012.9
20260502190039 55 126 0.0 6.0 0.00 0.00 0.00 83 1011.6
20260502190021 55 124 0.0 6.0 0.00 0.00 0.00 83 1012.8
20260502184539 56 0 0.0 5.0 0.00 0.00 0.00 82 1011.6
20260502184532 56 123 0.0 4.0 0.00 0.00 0.00 83 1012.8
20260502183037 56 0 0.0 4.0 0.00 0.00 0.00 83 1011.6
20260502183028 56 117 0.0 4.0 0.00 0.00 0.00 83 1012.7
20260502181534 56 117 1.0 7.0 0.00 0.00 0.00 82 1011.5
20260502181520 56 117 1.0 4.0 0.00 0.00 0.00 82 1012.7
20260502163050 59 0 1.0 7.0 0.00 0.00 0.00 79 1011.7
20260502163016 59 116 1.0 7.0 0.00 0.00 0.00 79 1012.7
20260502161554 58 123 2.0 10.0 0.00 0.00 0.00 79 1011.8
20260502161513 58 116 1.0 10.0 0.00 0.00 0.00 79 1012.9
20260502151540 60 0 1.0 5.0 0.00 0.00 0.00 75 1012.4
20260502151507 60 130 0.0 4.0 0.00 0.00 0.00 75 1013.5
20260502123106 59 121 2.0 8.0 0.00 0.00 0.00 73 1013.7
20260502123055 59 115 2.0 8.0 0.00 0.00 0.00 73 1014.7
20260502121555 60 113 1.0 6.0 0.00 0.00 0.00 71 1014.9
20260502121540 60 180 1.0 6.0 0.00 0.00 0.00 71 1013.9
20260502114553 60 242 0.0 3.0 0.00 0.00 0.00 70 1015.0
20260502114534 60 0 0.0 3.0 0.00 0.00 0.00 70 1014.0
20260502113051 59 255 0.0 4.0 0.00 0.00 0.00 71 1014.9
20260502113037 59 0 0.0 4.0 0.00 0.00 0.00 71 1013.9
20260502111552 59 266 1.0 6.0 0.00 0.00 0.00 70 1014.9
20260502111544 59 267 1.0 6.0 0.00 0.00 0.00 70 1013.9
20260502110053 60 192 1.0 4.0 0.00 0.00 0.00 70 1014.9
20260502110042 60 179 1.0 4.0 0.00 0.00 0.00 69 1014.0
20260502104548 60 167 0.0 5.0 0.00 0.00 0.00 72 1015.0
20260502104536 60 0 0.0 6.0 0.00 0.00 0.00 71 1014.1
20260502103048 60 115 2.0 8.0 0.00 0.00 0.00 72 1015.1
20260502103042 60 0 2.0 8.0 0.00 0.00 0.00 71 1014.1
20260502101552 59 142 1.0 4.0 0.00 0.00 0.00 71 1015.2
20260502101541 59 117 1.0 4.0 0.00 0.00 0.00 70 1014.3
20260502091534 60 0 1.0 7.0 0.00 0.00 0.00 71 1014.7
20260502071533 57 129 0.0 3.0 0.00 0.00 0.00 77 1015.1
20260502071515 57 129 0.0 2.0 0.00 0.00 0.00 78 1016.2
20260502070040 55 0 0.0 4.0 0.00 0.00 0.00 82 1015.2
20260502070011 55 129 0.0 3.0 0.00 0.00 0.00 82 1016.3
20260502064545 54 0 0.0 0.0 0.00 0.00 0.00 82 1015.2
20260502064509 54 161 0.0 0.0 0.00 0.00 0.00 82 1016.3
20260502063035 53 0 0.0 0.0 0.00 0.00 0.00 85 1015.2
20260502063022 53 161 0.0 0.0 0.00 0.00 0.00 86 1016.3
20260502061534 52 0 0.0 0.0 0.00 0.00 0.00 88 1015.2
20260502061507 52 161 0.0 0.0 0.00 0.00 0.00 89 1016.4
20260502060040 50 0 0.0 0.0 0.00 0.00 0.00 88 1015.2
20260502060003 50 161 0.0 0.0 0.00 0.00 0.00 89 1016.4
20260502054559 49 161 0.0 0.0 0.00 0.00 0.00 89 1016.3
20260502054538 49 0 0.0 0.0 0.00 0.00 0.00 88 1015.1
20260502053122 49 161 0.0 0.0 0.00 0.00 0.00 88 1016.2
20260502053038 49 0 0.0 0.0 0.00 0.00 0.00 87 1015.1
20260502051606 50 161 0.0 0.0 0.00 0.00 0.00 87 1016.3
20260502051537 50 0 0.0 0.0 0.00 0.00 0.00 86 1015.1
20260502050056 50 161 0.0 0.0 0.00 0.00 0.00 86 1016.5
20260502050041 50 0 0.0 0.0 0.00 0.00 0.00 86 1015.3
20260502044549 51 161 0.0 0.0 0.00 0.00 0.00 85 1016.5
20260502044544 51 0 0.0 0.0 0.00 0.00 0.00 84 1015.3
20260502043054 51 161 0.0 0.0 0.00 0.00 0.00 83 1016.4
20260502043044 51 0 0.0 0.0 0.00 0.00 0.00 83 1015.3
20260502041603 52 161 0.0 0.0 0.00 0.00 0.00 83 1016.5
20260502041541 52 0 0.0 0.0 0.00 0.00 0.00 83 1015.3
20260502040044 53 161 0.0 0.0 0.00 0.00 0.00 82 1016.8
20260502040034 53 0 0.0 0.0 0.00 0.00 0.00 81 1015.6
20260502034542 53 161 0.0 0.0 0.00 0.00 0.00 80 1016.7
20260502034533 53 0 0.0 2.0 0.00 0.00 0.00 79 1015.6
20260502033050 54 227 0.0 2.0 0.00 0.00 0.00 79 1016.7
20260502033040 54 0 0.0 2.0 0.00 0.00 0.00 78 1015.6
20260502031540 54 0 0.0 4.0 0.00 0.00 0.00 78 1015.8
20260502031537 54 199 0.0 5.0 0.00 0.00 0.00 78 1016.9
20260502030042 54 263 2.0 7.0 0.00 0.00 0.00 78 1015.9
20260502030036 54 252 1.0 7.0 0.00 0.00 0.00 78 1017.0
20260502024537 54 259 1.0 7.0 0.00 0.00 0.00 79 1017.1
20260502024535 54 227 1.0 7.0 0.00 0.00 0.00 78 1015.9
20260502023033 54 236 1.0 5.0 0.00 0.00 0.00 80 1017.1
20260502021533 53 322 0.0 2.0 0.00 0.00 0.00 82 1016.1
20260502021531 53 322 0.0 2.0 0.00 0.00 0.00 82 1017.2
20260502020033 53 0 0.0 0.0 0.00 0.00 0.00 82 1016.3
20260502020030 53 322 0.0 0.0 0.00 0.00 0.00 83 1017.4
20260502014540 53 0 0.0 1.0 0.00 0.00 0.00 81 1016.5
20260502014530 53 322 0.0 1.0 0.00 0.00 0.00 82 1017.6
20260502013035 53 0 0.0 1.0 0.00 0.00 0.00 81 1016.6
20260502013026 53 322 0.0 1.0 0.00 0.00 0.00 82 1017.7
20260502011535 54 0 0.0 0.0 0.00 0.00 0.00 80 1016.5
20260502011524 54 322 0.0 0.0 0.00 0.00 0.00 81 1017.7
20260502010033 54 0 0.0 1.0 0.00 0.00 0.00 80 1016.8
20260502010024 54 323 0.0 1.0 0.00 0.00 0.00 81 1017.7